SKYSAT-C7 (42991 NORAD) Tracking and Keplerian Element Data

This shows tracking and keplerian element data for the satellite.

Feedback or suggestion? Click here.




ElementValue
Catalog42991
NameSKYSAT-C7
Epoch Orbit8153
Epoch Day111.31242882
Epoch Year2019
RAAN225.9594
Inclination97.4281
Eccentricity0.0007641
Argument of Perigee116.5688
Mean Anonmoly243.6297
Mean Motion15.21698175
Decay Rate7.11E-06
L11 42991U 17068E 19111.31242882 .00000711 00000-0 34490-4 0 9993
L22 42991 97.4281 225.9594 0007641 116.5688 243.6297 15.21698175 81532

Live tracking and technical data element details for SKYSAT-C7 (NORAD 42991). SKYSAT-C7 can be tracked NOW for your location showing map with azimuth and elevation plus other details from your city location.

Track the satellite on the map from your city or location and see movement details for azimuth, elevation, latitude, longitude, range, height, and movement on the map or in text.







IsCatalogInMostPopularTable: catalog: 42991, numindb: 229
Update: records affected: 1



GetName: 42991 SKYSAT-C7

Hit Count: updated at: Tue, 23 Apr 2019 01:52:28 GMT